This is the latest recevied weather packets stored in our database for station/object SP9WPN-12. If no packets are shown the sender has not sent any weather packets the latest 10 day(s).
| Time | Temp. | Humidity | Pressure | Rain* | Wind** | Luminosity | Snow |
|---|---|---|---|---|---|---|---|
| 1777446666 | 7.78° C | 44% | 1027.6 hPa | - | - | - | - |
| 1777446068 | 7.78° C | 46% | 1027.5 hPa | - | - | - | - |
| 1777445470 | 7.22° C | 48% | 1027.5 hPa | - | - | - | - |
| 1777444872 | 7.22° C | 49% | 1027.5 hPa | - | - | - | - |
| 1777444274 | 6.67° C | 49% | 1027.4 hPa | - | - | - | - |
| 1777443676 | 7.22° C | 50% | 1027.3 hPa | - | - | - | - |
| 1777443078 | 6.67° C | 52% | 1027.3 hPa | - | - | - | - |
| 1777442481 | 7.22° C | 53% | 1027.1 hPa | - | - | - | - |
| 1777441883 | 6.67° C | 55% | 1027.2 hPa | - | - | - | - |
| 1777441285 | 5.56° C | 60% | 1027.2 hPa | - | - | - | - |
| 1777440688 | 5° C | 62% | 1027.3 hPa | - | - | - | - |
| 1777440089 | 4.44° C | 64% | 1027.2 hPa | - | - | - | - |
| 1777439492 | 3.33° C | 68% | 1027.3 hPa | - | - | - | - |
| 1777438893 | 2.22° C | 73% | 1027.5 hPa | - | - | - | - |
| 1777437698 | 1.11° C | 75% | 1027.3 hPa | - | - | - | - |
| 1777437101 | 0.56° C | 82% | 1027.3 hPa | - | - | - | - |
| 1777436503 | 0° C | 84% | 1027.2 hPa | - | - | - | - |
| 1777435906 | -0.56° C | 88% | 1027.3 hPa | - | - | - | - |
| 1777434710 | -1.67° C | 89% | 1027.3 hPa | - | - | - | - |
| 1777434110 | -2.22° C | 88% | 1027.4 hPa | - | - | - | - |
| 1777433513 | -1.67° C | 88% | 1027.3 hPa | - | - | - | - |
| 1777430526 | -1.67° C | 87% | 1027.5 hPa | - | - | - | - |
| 1777429928 | -1.67° C | 85% | 1027.4 hPa | - | - | - | - |
| 1777428729 | -1.11° C | 82% | 1027.5 hPa | - | - | - | - |
| 1777428131 | -0.56° C | 87% | 1027.4 hPa | - | - | - | - |
* Rain since midnight (hover to see other rain measurements)
** Current wind speed in m/s (hover to see current wind gust speed)